When you browse on this site, cookies collect data to enhance your experience and personalize the content and advertising you see.
Visit our Privacy Policy to learn more. By continuing to use the site, you agree to this use of cookies and data.
  • Em Portugal
  • Lista de países
  • Para 7 dias
  • Temperatura da água
  • Mapa do tempo
  • Widgets de tempo
  • user-avatar
    Iniciar Sessão

    Previsão horária em Belize

    Hoje, 9 Dezembro, Segunda-feira

    Tempo Temperatura Precipitação Vento Pressão Humidade
    00:00 +20°C° 0 mm 3 m/s 761 mmHg 94%
    01:00 +20°C° 0 mm 2 m/s 761 mmHg 95%
    02:00 +19°C° 0 mm 2 m/s 761 mmHg 96%
    03:00 +19°C° 0 mm 2 m/s 760 mmHg 97%
    04:00 +19°C° 0 mm 2 m/s 760 mmHg 97%
    05:00 +19°C° 0 mm 2 m/s 760 mmHg 97%
    06:00 +19°C° 0 mm 2 m/s 761 mmHg 97%
    07:00 +23°C° 0 mm 2 m/s 761 mmHg 86%
    08:00 +25°C° 0 mm 2 m/s 762 mmHg 74%
    09:00 +28°C° 0 mm 3 m/s 762 mmHg 62%
    10:00 +29°C° 0 mm 3 m/s 762 mmHg 58%
    11:00 +30°C° 0 mm 3 m/s 761 mmHg 53%
    12:00 +31°C° 0 mm 3 m/s 761 mmHg 49%
    13:00 +31°C° 0 mm 3 m/s 760 mmHg 51%
    14:00 +30°C° 0 mm 3 m/s 759 mmHg 53%
    15:00 +30°C° 0 mm 3 m/s 759 mmHg 56%
    16:00 +28°C° 0 mm 3 m/s 759 mmHg 65%
    17:00 +26°C° 0 mm 3 m/s 759 mmHg 74%
    18:00 +24°C° 0 mm 3 m/s 759 mmHg 83%
    19:00 +22°C° 0 mm 3 m/s 760 mmHg 86%
    20:00 +22°C° 0 mm 3 m/s 760 mmHg 89%
    21:00 +21°C° 0 mm 3 m/s 760 mmHg 92%
    22:00 +21°C° 0 mm 3 m/s 760 mmHg 93%
    23:00 +21°C° 0 mm 3 m/s 760 mmHg 94%

    Amanhã, 10 Dezembro, Terça-feira

    Tempo Temperatura Precipitação Vento Pressão Humidade
    00:00 +21°C° 0 mm 4 m/s 759 mmHg 96%
    01:00 +21°C° 0 mm 4 m/s 759 mmHg 96%
    02:00 +20°C° 0 mm 4 m/s 759 mmHg 97%
    03:00 +20°C° 0 mm 4 m/s 759 mmHg 97%
    04:00 +20°C° 0 mm 4 m/s 759 mmHg 98%
    05:00 +20°C° 0 mm 4 m/s 759 mmHg 98%
    06:00 +20°C° 0 mm 4 m/s 759 mmHg 98%
    07:00 +23°C° 0.1 mm 5 m/s 760 mmHg 90%
    08:00 +27°C° 0.1 mm 5 m/s 760 mmHg 81%
    09:00 +29°C° 0.1 mm 6 m/s 761 mmHg 73%
    10:00 +30°C° 0.1 mm 6 m/s 761 mmHg 68%
    11:00 +32°C° 0.1 mm 6 m/s 760 mmHg 64%
    12:00 +33°C° 0.1 mm 5 m/s 760 mmHg 59%
    13:00 +33°C° 0 mm 5 m/s 759 mmHg 61%
    14:00 +33°C° 0 mm 5 m/s 759 mmHg 63%
    15:00 +32°C° 0 mm 5 m/s 758 mmHg 64%
    16:00 +30°C° 0 mm 5 m/s 758 mmHg 74%
    17:00 +28°C° 0 mm 5 m/s 759 mmHg 83%
    18:00 +26°C° 0 mm 5 m/s 759 mmHg 92%
    19:00 +26°C° 0 mm 5 m/s 760 mmHg 94%
    20:00 +25°C° 0 mm 5 m/s 760 mmHg 96%
    21:00 +25°C° 0 mm 5 m/s 760 mmHg 98%
    22:00 +25°C° 0 mm 5 m/s 760 mmHg 98%
    23:00 +25°C° 0 mm 5 m/s 760 mmHg 98%

    Depois de amanhã, 11 Dezembro, Quarta-feira

    Tempo Temperatura Precipitação Vento Pressão Humidade
    00:00 +25°C° 0 mm 5 m/s 760 mmHg 98%
    01:00 +25°C° 0.1 mm 5 m/s 760 mmHg 98%
    02:00 +25°C° 0.1 mm 4 m/s 759 mmHg 98%
    03:00 +25°C° 0.1 mm 4 m/s 759 mmHg 98%
    04:00 +25°C° 0.1 mm 4 m/s 760 mmHg 98%
    05:00 +25°C° 0.1 mm 4 m/s 760 mmHg 98%
    06:00 +25°C° 0.1 mm 4 m/s 761 mmHg 98%
    07:00 +26°C° 0.5 mm 4 m/s 761 mmHg 96%
    08:00 +27°C° 0.5 mm 4 m/s 762 mmHg 94%
    09:00 +29°C° 0.5 mm 4 m/s 762 mmHg 92%
    10:00 +29°C° 1 mm 4 m/s 762 mmHg 90%
    11:00 +29°C° 1 mm 4 m/s 762 mmHg 89%
    12:00 +29°C° 1 mm 4 m/s 761 mmHg 87%
    13:00 +29°C° 1.2 mm 4 m/s 761 mmHg 85%
    14:00 +29°C° 1.2 mm 4 m/s 761 mmHg 83%
    15:00 +29°C° 1.2 mm 4 m/s 760 mmHg 81%
    16:00 +28°C° 0.7 mm 4 m/s 760 mmHg 86%
    17:00 +27°C° 0.7 mm 4 m/s 761 mmHg 92%
    18:00 +25°C° 0.7 mm 3 m/s 761 mmHg 97%
    19:00 +25°C° 0.6 mm 4 m/s 761 mmHg 97%
    20:00 +25°C° 0.6 mm 4 m/s 762 mmHg 98%
    21:00 +23°C° 0.6 mm 4 m/s 762 mmHg 98%
    22:00 +24°C° 1.1 mm 3 m/s 762 mmHg 99%
    23:00 +24°C° 1.1 mm 3 m/s 762 mmHg 99%

    12 Dezembro, Quinta-feira

    Tempo Temperatura Precipitação Vento Pressão Humidade
    00:00 +24°C° 1.1 mm 3 m/s 762 mmHg 99%
    01:00 +24°C° 1 mm 2 m/s 761 mmHg 99%
    02:00 +23°C° 1 mm 2 m/s 761 mmHg 99%
    03:00 +23°C° 1 mm 2 m/s 761 mmHg 99%
    04:00 +23°C° 0.9 mm 2 m/s 761 mmHg 99%
    05:00 +23°C° 0.9 mm 2 m/s 761 mmHg 99%
    06:00 +23°C° 0.9 mm 2 m/s 761 mmHg 99%
    07:00 +24°C° 0.8 mm 2 m/s 762 mmHg 98%
    08:00 +25°C° 0.8 mm 2 m/s 762 mmHg 96%
    09:00 +25°C° 0.8 mm 3 m/s 763 mmHg 95%
    10:00 +26°C° 0.7 mm 3 m/s 762 mmHg 90%
    11:00 +28°C° 0.7 mm 3 m/s 762 mmHg 85%
    12:00 +29°C° 0.7 mm 2 m/s 762 mmHg 80%
    13:00 +28°C° 0.3 mm 3 m/s 761 mmHg 84%
    14:00 +28°C° 0.3 mm 3 m/s 760 mmHg 88%
    15:00 +28°C° 0.3 mm 3 m/s 760 mmHg 91%
    16:00 +27°C° 0.1 mm 3 m/s 760 mmHg 93%
    17:00 +25°C° 0.1 mm 3 m/s 760 mmHg 96%
    18:00 +24°C° 0.1 mm 3 m/s 760 mmHg 98%
    19:00 +24°C° 0.2 mm 3 m/s 760 mmHg 98%
    20:00 +24°C° 0.2 mm 2 m/s 761 mmHg 98%
    21:00 +24°C° 0.2 mm 2 m/s 761 mmHg 98%
    22:00 +23°C° 0.2 mm 2 m/s 761 mmHg 98%
    23:00 +23°C° 0.2 mm 2 m/s 761 mmHg 99%

    13 Dezembro, Sexta-feira

    Tempo Temperatura Precipitação Vento Pressão Humidade
    00:00 +23°C° 0.2 mm 2 m/s 760 mmHg 99%
    01:00 +23°C° 0.2 mm 2 m/s 760 mmHg 99%
    02:00 +23°C° 0.2 mm 2 m/s 760 mmHg 99%
    03:00 +22°C° 0.2 mm 3 m/s 759 mmHg 99%
    04:00 +22°C° 0.4 mm 3 m/s 759 mmHg 99%
    05:00 +22°C° 0.4 mm 3 m/s 760 mmHg 99%
    06:00 +22°C° 0.4 mm 3 m/s 760 mmHg 99%
    07:00 +24°C° 0.1 mm 3 m/s 760 mmHg 97%
    08:00 +25°C° 0.1 mm 3 m/s 761 mmHg 96%
    09:00 +26°C° 0.1 mm 4 m/s 761 mmHg 94%
    10:00 +27°C° 0.4 mm 3 m/s 760 mmHg 91%
    11:00 +27°C° 0.4 mm 3 m/s 760 mmHg 88%
    12:00 +28°C° 0.4 mm 3 m/s 759 mmHg 85%
    13:00 +28°C° 0.8 mm 3 m/s 759 mmHg 86%
    14:00 +28°C° 0.8 mm 3 m/s 758 mmHg 86%
    15:00 +28°C° 0.8 mm 3 m/s 757 mmHg 87%
    16:00 +27°C° 0.2 mm 3 m/s 758 mmHg 91%
    17:00 +26°C° 0.2 mm 2 m/s 758 mmHg 94%
    18:00 +24°C° 0.2 mm 2 m/s 758 mmHg 98%
    19:00 +24°C° 0 mm 2 m/s 758 mmHg 98%
    20:00 +24°C° 0 mm 2 m/s 759 mmHg 98%
    21:00 +23°C° 0 mm 2 m/s 759 mmHg 98%
    22:00 +23°C° 0 mm 2 m/s 759 mmHg 98%
    23:00 +23°C° 0 mm 1 m/s 759 mmHg 98%

    14 Dezembro, Sábado

    Tempo Temperatura Precipitação Vento Pressão Humidade
    00:00 +23°C° 0 mm 1 m/s 758 mmHg 98%
    01:00 +23°C° 0 mm 2 m/s 758 mmHg 98%
    02:00 +21°C° 0 mm 2 m/s 758 mmHg 98%
    03:00 +21°C° 0 mm 3 m/s 757 mmHg 98%
    04:00 +21°C° 0 mm 3 m/s 758 mmHg 98%
    05:00 +21°C° 0 mm 3 m/s 758 mmHg 98%
    06:00 +20°C° 0 mm 3 m/s 758 mmHg 98%
    07:00 +23°C° 0 mm 2 m/s 759 mmHg 93%
    08:00 +25°C° 0 mm 2 m/s 759 mmHg 89%
    09:00 +26°C° 0 mm 2 m/s 759 mmHg 84%
    10:00 +29°C° 0 mm 2 m/s 759 mmHg 73%
    11:00 +31°C° 0 mm 2 m/s 759 mmHg 62%
    12:00 +34°C° 0 mm 2 m/s 758 mmHg 51%
    13:00 +34°C° 0 mm 2 m/s 758 mmHg 53%
    14:00 +33°C° 0 mm 3 m/s 757 mmHg 56%
    15:00 +31°C° 0 mm 3 m/s 756 mmHg 59%
    16:00 +29°C° 0 mm 3 m/s 757 mmHg 69%
    17:00 +27°C° 0 mm 3 m/s 757 mmHg 79%
    18:00 +25°C° 0 mm 3 m/s 757 mmHg 90%
    19:00 +24°C° 0 mm 3 m/s 758 mmHg 92%
    20:00 +24°C° 0 mm 3 m/s 758 mmHg 95%
    21:00 +22°C° 0 mm 3 m/s 759 mmHg 98%
    22:00 +22°C° 0 mm 3 m/s 759 mmHg 98%
    23:00 +23°C° 0 mm 2 m/s 758 mmHg 98%
    Mostrar mais